1 Minute Report
Date Time Wind Direction Wind Speed Wind Gust Wind Variable Altimeter Temperature Dewpoint Relative Humidity Visibility Ceiling Precip Present Weather Density Alt Wind Chill Heat Index
17/04/29 07:29 000 00 N/A N/A 30.01 61(F), 16(C) 56(F), 13(C) 82% 10 OVC100 N/A N/A N/A 61 F N/A 26499
17/04/29 07:28 000 00 N/A N/A 30.01 61(F), 16(C) 56(F), 13(C) 82% 10 OVC100 N/A N/A N/A 61 F N/A 26498
17/04/29 07:27 000 00 N/A N/A 30.01 61(F), 16(C) 56(F), 13(C) 82% 10 OVC100 N/A N/A N/A 61 F N/A 26497
17/04/29 07:26 000 00 N/A N/A 30.02 61(F), 16(C) 56(F), 13(C) 82% 10 OVC100 N/A N/A N/A 61 F N/A 26496
17/04/29 07:25 000 00 N/A N/A 30.02 61(F), 16(C) 56(F), 13(C) 82% 10 OVC100 N/A N/A N/A 61 F N/A 26495
17/04/29 07:24 000 00 N/A N/A 30.02 61(F), 16(C) 56(F), 13(C) 82% 10 OVC100 N/A N/A N/A 61 F N/A 26494
17/04/29 07:23 000 00 N/A N/A 30.02 61(F), 16(C) 56(F), 13(C) 82% 10 OVC100 N/A N/A N/A 61 F N/A 26493
17/04/29 07:22 000 00 N/A N/A 30.02 61(F), 16(C) 56(F), 13(C) 82% 10 OVC100 N/A N/A N/A 61 F N/A 26492
17/04/29 07:21 000 00 N/A N/A 30.02 61(F), 16(C) 56(F), 13(C) 82% 10 OVC100 N/A N/A N/A 61 F N/A 26491
17/04/29 07:20 000 00 N/A N/A 30.01 61(F), 16(C) 56(F), 13(C) 82% 10 OVC100 N/A N/A N/A 61 F N/A 26490
17/04/29 07:19 000 00 N/A N/A 30.01 61(F), 16(C) 56(F), 13(C) 82% 10 OVC100 N/A N/A N/A 61 F N/A 26489
17/04/29 07:18 000 00 N/A N/A 30.01 61(F), 16(C) 56(F), 13(C) 82% 10 OVC100 N/A N/A N/A 61 F N/A 26488
17/04/29 07:17 000 00 N/A N/A 30.01 61(F), 16(C) 56(F), 13(C) 82% 10 OVC100 N/A N/A N/A 61 F N/A 26487
17/04/29 07:16 000 00 N/A N/A 30.01 61(F), 16(C) 56(F), 13(C) 82% 10 OVC100 N/A N/A N/A 61 F N/A 26486
17/04/29 07:15 000 00 N/A N/A 30.00 61(F), 16(C) 56(F), 13(C) 82% 10 OVC100 N/A N/A N/A 61 F N/A 26485
17/04/29 07:14 000 00 N/A N/A 30.00 61(F), 16(C) 56(F), 13(C) 82% 10 OVC100 N/A N/A N/A 61 F N/A 26484
17/04/29 07:13 000 00 N/A N/A 30.00 61(F), 16(C) 56(F), 13(C) 82% 10 OVC100 N/A N/A N/A 61 F N/A 26483
17/04/29 07:12 000 00 N/A N/A 30.00 61(F), 16(C) 56(F), 13(C) 82% 10 OVC100 N/A N/A N/A 61 F N/A 26482
17/04/29 07:11 000 00 N/A N/A 30.00 61(F), 16(C) 56(F), 13(C) 82% 10 OVC100 N/A N/A N/A 61 F N/A 26481
17/04/29 07:10 000 00 N/A N/A 30.00 61(F), 16(C) 56(F), 13(C) 82% 10 OVC100 N/A N/A N/A 61 F N/A 26480
17/04/29 07:09 000 00 N/A N/A 30.00 61(F), 16(C) 56(F), 13(C) 82% 10 OVC100 N/A N/A N/A 61 F N/A 26479
17/04/29 07:08 000 00 N/A N/A 30.00 61(F), 16(C) 56(F), 13(C) 82% 10 OVC100 N/A N/A N/A 61 F N/A 26478
17/04/29 07:07 000 00 N/A N/A 30.00 61(F), 16(C) 56(F), 13(C) 82% 10 OVC100 N/A N/A N/A 61 F N/A 26477
17/04/29 07:06 000 00 N/A N/A 30.00 61(F), 16(C) 56(F), 13(C) 82% 10 OVC100 N/A N/A N/A 61 F N/A 26476
17/04/29 07:05 000 00 N/A N/A 30.00 61(F), 16(C) 56(F), 13(C) 82% 10 OVC100 N/A N/A N/A 61 F N/A 26475
17/04/29 07:04 000 00 N/A N/A 30.00 61(F), 16(C) 56(F), 13(C) 82% 10 OVC100 N/A N/A N/A 61 F N/A 26474
17/04/29 07:03 000 00 N/A N/A 30.01 61(F), 16(C) 56(F), 13(C) 82% 10 OVC100 N/A N/A N/A 61 F N/A 26473
17/04/29 07:02 000 00 N/A N/A 30.01 61(F), 16(C) 56(F), 13(C) 82% 10 OVC100 N/A N/A N/A 61 F N/A 26472
17/04/29 07:01 000 00 N/A N/A 30.01 61(F), 16(C) 56(F), 13(C) 82% 10 OVC100 N/A N/A N/A 61 F N/A 26471
17/04/29 07:00 000 00 N/A N/A 30.01 61(F), 16(C) 56(F), 13(C) 82% 10 OVC100 N/A N/A N/A 61 F N/A 26470
17/04/29 06:59 000 00 N/A N/A 30.02 61(F), 16(C) 56(F), 13(C) 82% 10 OVC100 N/A N/A N/A 61 F N/A 26469
17/04/29 06:58 000 00 N/A N/A 30.02 61(F), 16(C) 56(F), 13(C) 82% 10 OVC100 N/A N/A N/A 61 F N/A 26468
17/04/29 06:57 000 00 N/A N/A 30.02 61(F), 16(C) 56(F), 13(C) 82% 10 OVC100 N/A N/A N/A 61 F N/A 26467
17/04/29 06:56 000 00 N/A N/A 30.02 61(F), 16(C) 56(F), 13(C) 82% 10 OVC100 N/A N/A N/A 61 F N/A 26466
17/04/29 06:55 000 00 N/A N/A 30.02 61(F), 16(C) 56(F), 13(C) 82% 10 OVC100 N/A N/A N/A 61 F N/A 26465
17/04/29 06:54 000 00 N/A N/A 30.02 61(F), 16(C) 56(F), 13(C) 82% 10 OVC100 N/A N/A N/A 61 F N/A 26464
17/04/29 06:53 000 00 N/A N/A 30.02 61(F), 16(C) 56(F), 13(C) 82% 10 OVC100 N/A N/A N/A 61 F N/A 26463
17/04/29 06:52 000 00 N/A N/A 30.02 61(F), 16(C) 56(F), 13(C) 82% 10 OVC100 N/A N/A N/A 61 F N/A 26462
17/04/29 06:51 000 00 N/A N/A 30.02 61(F), 16(C) 56(F), 13(C) 82% 10 OVC100 N/A N/A N/A 61 F N/A 26461
17/04/29 06:50 000 00 N/A N/A 30.02 61(F), 16(C) 56(F), 13(C) 82% 10 OVC100 N/A N/A N/A 61 F N/A 26460
17/04/29 06:49 000 00 N/A N/A 30.01 61(F), 16(C) 56(F), 13(C) 82% 10 OVC100 N/A N/A N/A 61 F N/A 26459
17/04/29 06:48 000 00 N/A N/A 30.01 61(F), 16(C) 56(F), 13(C) 82% 10 OVC100 N/A N/A N/A 61 F N/A 26458
17/04/29 06:47 000 00 N/A N/A 30.01 62(F), 17(C) 56(F), 13(C) 77% 10 OVC100 N/A N/A N/A 62 F N/A 26457
17/04/29 06:46 000 00 N/A N/A 30.01 62(F), 17(C) 56(F), 13(C) 77% 10 OVC100 N/A N/A N/A 62 F N/A 26456
17/04/29 06:45 000 00 N/A N/A 30.01 62(F), 17(C) 56(F), 13(C) 77% 10 OVC100 N/A N/A N/A 62 F N/A 26455
17/04/29 06:44 000 00 N/A N/A 30.01 62(F), 17(C) 56(F), 13(C) 77% 10 OVC100 N/A N/A N/A 62 F N/A 26454
17/04/29 06:43 000 00 N/A N/A 30.01 62(F), 17(C) 56(F), 13(C) 77% 10 OVC100 N/A N/A N/A 62 F N/A 26453
17/04/29 06:42 000 00 N/A N/A 30.01 62(F), 17(C) 56(F), 13(C) 77% 10 OVC100 N/A N/A N/A 62 F N/A 26452
17/04/29 06:41 000 00 N/A N/A 30.01 62(F), 17(C) 56(F), 13(C) 77% 10 OVC100 N/A N/A N/A 62 F N/A 26451
17/04/29 06:40 000 00 N/A N/A 30.01 62(F), 17(C) 56(F), 13(C) 77% 10 OVC110 N/A N/A N/A 62 F N/A 26450
17/04/29 06:39 000 00 N/A N/A 30.01 62(F), 17(C) 56(F), 13(C) 77% 10 OVC110 N/A N/A N/A 62 F N/A 26449
17/04/29 06:38 000 00 N/A N/A 30.00 61(F), 16(C) 56(F), 13(C) 82% 10 OVC110 N/A N/A N/A 61 F N/A 26448
17/04/29 06:37 000 00 N/A N/A 30.00 61(F), 16(C) 56(F), 13(C) 82% 10 OVC110 N/A N/A N/A 61 F N/A 26447
17/04/29 06:36 000 00 N/A N/A 30.00 61(F), 16(C) 56(F), 13(C) 82% 10 OVC110 N/A N/A N/A 61 F N/A 26446
17/04/29 06:35 000 00 N/A N/A 30.00 61(F), 16(C) 56(F), 13(C) 82% 10 OVC110 N/A N/A N/A 61 F N/A 26445
17/04/29 06:34 000 00 N/A N/A 30.00 61(F), 16(C) 56(F), 13(C) 82% 10 OVC110 N/A N/A N/A 61 F N/A 26444
17/04/29 06:33 000 00 N/A N/A 30.00 61(F), 16(C) 56(F), 13(C) 82% 10 OVC110 N/A N/A N/A 61 F N/A 26443
17/04/29 06:32 000 00 N/A N/A 30.00 61(F), 16(C) 56(F), 13(C) 82% 10 OVC110 N/A N/A N/A 61 F N/A 26442
17/04/29 06:31 000 00 N/A N/A 30.00 61(F), 16(C) 56(F), 13(C) 82% 10 OVC110 N/A N/A N/A 61 F N/A 26441
17/04/29 06:30 000 00 N/A N/A 30.00 62(F), 17(C) 56(F), 13(C) 77% 10 OVC110 N/A N/A N/A 62 F N/A 26440
17/04/29 06:29 000 00 N/A N/A 30.00 62(F), 17(C) 56(F), 13(C) 77% 10 OVC110 N/A N/A N/A 62 F N/A 26439
17/04/29 06:28 000 00 N/A N/A 30.00 62(F), 17(C) 56(F), 13(C) 77% 10 OVC110 N/A N/A N/A 62 F N/A 26438
17/04/29 06:27 000 00 N/A N/A 30.00 61(F), 16(C) 56(F), 13(C) 82% 10 OVC110 N/A N/A N/A 61 F N/A 26437
17/04/29 06:26 000 00 N/A N/A 30.00 61(F), 16(C) 56(F), 13(C) 82% 10 OVC110 N/A N/A N/A 61 F N/A 26436
17/04/29 06:25 000 00 N/A N/A 30.00 61(F), 16(C) 56(F), 13(C) 82% 10 OVC110 N/A N/A N/A 61 F N/A 26435
17/04/29 06:24 000 00 N/A N/A 30.00 61(F), 16(C) 56(F), 13(C) 82% 10 OVC110 N/A N/A N/A 61 F N/A 26434
17/04/29 06:23 000 00 N/A N/A 30.01 61(F), 16(C) 56(F), 13(C) 82% 10 OVC110 N/A N/A N/A 61 F N/A 26433
17/04/29 06:22 000 00 N/A N/A 30.01 61(F), 16(C) 56(F), 13(C) 82% 10 OVC110 N/A N/A N/A 61 F N/A 26432
17/04/29 06:21 000 00 N/A N/A 30.01 61(F), 16(C) 56(F), 13(C) 82% 10 OVC110 N/A N/A N/A 61 F N/A 26431
17/04/29 06:20 000 00 N/A N/A 30.01 61(F), 16(C) 56(F), 13(C) 82% 10 OVC110 N/A N/A N/A 61 F N/A 26430
17/04/29 06:19 000 00 N/A N/A 30.01 61(F), 16(C) 56(F), 13(C) 82% 10 OVC110 N/A N/A N/A 61 F N/A 26429
17/04/29 06:18 000 00 N/A N/A 30.01 61(F), 16(C) 56(F), 13(C) 82% 10 OVC110 N/A N/A N/A 61 F N/A 26428
17/04/29 06:17 000 00 N/A N/A 30.01 61(F), 16(C) 56(F), 13(C) 82% 10 OVC110 N/A N/A N/A 61 F N/A 26427
17/04/29 06:16 000 00 N/A N/A 30.01 61(F), 16(C) 56(F), 13(C) 82% 10 OVC110 N/A N/A N/A 61 F N/A 26426
17/04/29 06:15 000 00 N/A N/A 30.01 61(F), 16(C) 56(F), 13(C) 82% 10 OVC110 N/A N/A N/A 61 F N/A 26425
17/04/29 06:14 000 00 N/A N/A 30.01 61(F), 16(C) 56(F), 13(C) 82% 10 OVC110 N/A N/A N/A 61 F N/A 26424
17/04/29 06:13 000 00 N/A N/A 30.01 61(F), 16(C) 56(F), 13(C) 82% 10 OVC110 N/A N/A N/A 61 F N/A 26423
17/04/29 06:12 000 00 N/A N/A 30.01 61(F), 16(C) 56(F), 13(C) 82% 10 OVC110 N/A N/A N/A 61 F N/A 26422
17/04/29 06:11 000 00 N/A N/A 30.01 61(F), 16(C) 56(F), 13(C) 82% 10 OVC110 N/A N/A N/A 61 F N/A 26421
17/04/29 06:10 000 00 N/A N/A 30.01 61(F), 16(C) 56(F), 13(C) 82% 10 OVC110 N/A N/A N/A 61 F N/A 26420
17/04/29 06:09 000 00 N/A N/A 30.01 61(F), 16(C) 56(F), 13(C) 82% 10 OVC110 N/A N/A N/A 61 F N/A 26419
17/04/29 06:08 000 00 N/A N/A 30.01 61(F), 16(C) 56(F), 13(C) 82% 10 OVC110 N/A N/A N/A 61 F N/A 26418
17/04/29 06:07 000 00 N/A N/A 30.02 61(F), 16(C) 56(F), 13(C) 82% 10 OVC110 N/A N/A N/A 61 F N/A 26417
17/04/29 06:06 000 00 N/A N/A 30.02 61(F), 16(C) 57(F), 14(C) 88% 10 OVC110 N/A N/A N/A 61 F N/A 26416
17/04/29 06:05 000 00 N/A N/A 30.02 61(F), 16(C) 57(F), 14(C) 88% 10 OVC110 N/A N/A N/A 61 F N/A 26415
17/04/29 06:04 000 00 N/A N/A 30.02 61(F), 16(C) 57(F), 14(C) 88% 10 OVC110 N/A N/A N/A 61 F N/A 26414
17/04/29 06:03 000 00 N/A N/A 30.02 61(F), 16(C) 57(F), 14(C) 88% 10 OVC110 N/A N/A N/A 61 F N/A 26413
17/04/29 06:02 000 00 N/A N/A 30.02 61(F), 16(C) 57(F), 14(C) 88% 10 OVC110 N/A N/A N/A 61 F N/A 26412
17/04/29 06:01 000 00 N/A N/A 30.02 61(F), 16(C) 57(F), 14(C) 88% 10 OVC110 N/A N/A N/A 61 F N/A 26411
17/04/29 06:00 000 00 N/A N/A 30.02 61(F), 16(C) 56(F), 13(C) 82% 10 OVC110 N/A N/A N/A 61 F N/A 26410
17/04/29 05:59 000 00 N/A N/A 30.02 61(F), 16(C) 56(F), 13(C) 82% 10 OVC110 N/A N/A N/A 61 F N/A 26409
17/04/29 05:58 000 00 N/A N/A 30.02 62(F), 17(C) 56(F), 13(C) 77% 10 OVC110 N/A N/A N/A 62 F N/A 26408
17/04/29 05:57 000 00 N/A N/A 30.02 62(F), 17(C) 56(F), 13(C) 77% 10 OVC110 N/A N/A N/A 62 F N/A 26407
17/04/29 05:56 000 00 N/A N/A 30.02 62(F), 17(C) 56(F), 13(C) 77% 10 OVC110 N/A N/A N/A 62 F N/A 26406
17/04/29 05:55 000 00 N/A N/A 30.02 62(F), 17(C) 56(F), 13(C) 77% 10 OVC110 N/A N/A N/A 62 F N/A 26405
17/04/29 05:54 000 00 N/A N/A 30.02 62(F), 17(C) 56(F), 13(C) 77% 10 OVC110 N/A N/A N/A 62 F N/A 26404
17/04/29 05:53 000 00 N/A N/A 30.02 62(F), 17(C) 56(F), 13(C) 77% 10 OVC110 N/A N/A N/A 62 F N/A 26403
17/04/29 05:52 000 00 N/A N/A 30.02 62(F), 17(C) 56(F), 13(C) 77% 10 OVC110 N/A N/A N/A 62 F N/A 26402
17/04/29 05:51 000 00 N/A N/A 30.02 62(F), 17(C) 56(F), 13(C) 77% 10 OVC110 N/A N/A N/A 62 F N/A 26401
17/04/29 05:50 000 00 N/A N/A 30.02 62(F), 17(C) 57(F), 14(C) 83% 10 OVC110 N/A N/A N/A 62 F N/A 26400
17/04/29 05:49 000 00 N/A N/A 30.02 62(F), 17(C) 57(F), 14(C) 83% 10 OVC110 N/A N/A N/A 62 F N/A 26399
17/04/29 05:48 000 00 N/A N/A 30.02 62(F), 17(C) 57(F), 14(C) 83% 10 OVC110 N/A N/A N/A 62 F N/A 26398
17/04/29 05:47 000 00 N/A N/A 30.02 62(F), 17(C) 57(F), 14(C) 83% 10 OVC110 N/A N/A N/A 62 F N/A 26397
17/04/29 05:46 000 00 N/A N/A 30.02 62(F), 17(C) 57(F), 14(C) 83% 10 OVC110 N/A N/A N/A 62 F N/A 26396
17/04/29 05:45 000 00 N/A N/A 30.02 62(F), 17(C) 57(F), 14(C) 83% 10 OVC110 N/A N/A N/A 62 F N/A 26395
17/04/29 05:44 000 00 N/A N/A 30.02 62(F), 17(C) 57(F), 14(C) 83% 10 OVC110 N/A N/A N/A 62 F N/A 26394
17/04/29 05:43 180 03 N/A N/A 30.02 62(F), 17(C) 57(F), 14(C) 83% 10 OVC110 N/A N/A N/A 62 F N/A 26393
17/04/29 05:42 180 03 N/A N/A 30.02 61(F), 16(C) 57(F), 14(C) 88% 10 OVC110 N/A N/A N/A 61 F N/A 26392
17/04/29 05:41 180 03 N/A N/A 30.02 61(F), 16(C) 57(F), 14(C) 88% 10 OVC110 N/A N/A N/A 61 F N/A 26391
17/04/29 05:40 180 04 N/A N/A 30.02 61(F), 16(C) 56(F), 13(C) 82% 10 OVC110 N/A N/A N/A 61 F N/A 26390
17/04/29 05:39 190 04 N/A N/A 30.02 61(F), 16(C) 56(F), 13(C) 82% 10 OVC110 N/A N/A N/A 61 F N/A 26389
17/04/29 05:38 190 03 N/A N/A 30.02 61(F), 16(C) 56(F), 13(C) 82% 10 OVC110 N/A N/A N/A 61 F N/A 26388
17/04/29 05:37 000 00 N/A N/A 30.02 61(F), 16(C) 56(F), 13(C) 82% 10 OVC110 N/A N/A N/A 61 F N/A 26387
17/04/29 05:36 000 00 N/A N/A 30.02 61(F), 16(C) 56(F), 13(C) 82% 10 OVC110 N/A N/A N/A 61 F N/A 26386
17/04/29 05:35 000 00 N/A N/A 30.02 61(F), 16(C) 56(F), 13(C) 82% 10 OVC110 N/A N/A N/A 61 F N/A 26385
17/04/29 05:34 000 00 N/A N/A 30.02 61(F), 16(C) 56(F), 13(C) 82% 10 OVC110 N/A N/A N/A 61 F N/A 26384
17/04/29 05:33 000 00 N/A N/A 30.02 61(F), 16(C) 56(F), 13(C) 82% 10 OVC110 N/A N/A N/A 61 F N/A 26383
17/04/29 05:32 000 00 N/A N/A 30.02 61(F), 16(C) 56(F), 13(C) 82% 10 OVC110 N/A N/A N/A 61 F N/A 26382
17/04/29 05:31 000 00 N/A N/A 30.02 61(F), 16(C) 56(F), 13(C) 82% 10 OVC110 N/A N/A N/A 61 F N/A 26381
17/04/29 05:30 000 00 N/A N/A 30.02 61(F), 16(C) 56(F), 13(C) 82% 10 OVC110 N/A N/A N/A 61 F N/A 26380
17/04/29 05:29 000 00 N/A N/A 30.02 61(F), 16(C) 56(F), 13(C) 82% 10 OVC110 N/A N/A N/A 61 F N/A 26379